Location: Bailey Volunteer Fire Department
(33.4359°N, 96.1680°W)
Time: 17:56:20
(UTC+00:00)

COSMO-SKYMED 1 - Pass Details

Date: 13 December 2025
Orbit: 578 x 580 km, 97.9° (Epoch: 14 January)

Event Time Altitude Azimuth Distance (km) Brightness Sun altitude
Rises 12:39:59 0° 192° (SSW) 2,782 6.1 -8.4°
Reaches altitude 10° 12:42:23 10° 204° (SSW) 1,888 5.0 -8.0°
Maximum altitude 12:45:52 27° 263° (W) 1,131 3.4 -7.3°
Drops below altitude 10° 12:49:23 10° 322° (NW) 1,898 4.5 -6.6°
Enters shadow 12:51:38 - 334° (NNW) 2,737 5.4 -6.2°
